Theta_e
331 331 331 331 327 323 322 320 318 316 314 313 311 308 307 306 306 306 306 305 304 304 305 305 305 305 305 305 305 305 305 305 305 305 305 305 307 309 308 304 306 305 304
332 332 332 330 328 325 323 322 319 318 317 315 313 309 308 307 307 306 306 305 304 304 304 304 304 304 304 304 304 304 304 304 304 305 305 304 305 308 304 305 306 305 304
330 330 329 328 327 326 325 323 321 320 318 316 313 310 308 307 307 306 306 305 304 304 304 304 304 304 304 304 304 304 303 303 303 303 303 303 303 303 304 303 304 305 304
324 326 328 328 328 327 326 324 322 320 318 317 314 311 310 309 307 307 307 306 305 304 303 303 303 303 303 303 303 303 303 302 302 302 302 302 301 301 302 302 302 302 302
323 323 325 329 329 329 328 325 322 320 320 319 315 313 310 309 309 308 307 306 305 304 303 303 303 303 303 302 302 302 302 302 301 301 301 300 300 300 299 299 301 301 301
323 323 323 328 328 330 329 326 321 322 320 317 315 313 311 310 309 308 307 306 305 303 303 303 303 303 303 302 302 302 302 301 301 300 300 299 299 298 297 297 299 299 302
315 318 322 327 330 330 329 326 323 321 319 315 314 313 311 310 308 307 308 307 305 303 303 303 303 303 303 302 302 302 302 301 301 300 300 299 299 299 299 299 297 295 294
312 314 317 323 326 328 328 326 325 321 319 316 314 313 311 309 307 308 307 305 304 304 304 303 303 303 302 302 302 302 301 301 300 300 300 300 300 299 296 294 292 290 289
310 313 316 321 324 325 327 325 323 320 317 315 314 313 310 308 308 307 305 305 304 304 303 303 303 303 302 302 302 301 301 301 300 299 297 294 291 290 290 289 289 288 287
313 315 319 321 323 324 324 322 320 318 317 315 313 311 308 307 306 305 305 304 304 303 303 303 303 302 302 301 301 299 294 292 291 291 290 290 290 290 289 289 288 288 288
315 317 320 321 322 322 321 319 317 316 315 313 311 308 307 305 305 304 304 303 303 303 303 302 301 301 297 293 291 291 291 291 290 290 290 289 289 288 288 288 288 288 287
315 317 318 319 319 319 318 317 315 314 313 311 308 307 305 305 304 304 304 303 303 302 301 300 295 292 291 291 291 290 290 290 289 289 289 288 288 288 288 287 287 287 286
314 315 316 316 316 316 315 314 313 312 310 308 307 306 305 304 304 303 303 302 301 299 294 292 291 291 291 290 290 290 289 289 289 289 288 288 287 287 287 286 286 285 285
312 313 314 314 314 314 313 313 311 309 308 307 306 306 305 304 303 302 301 297 293 291 291 291 290 290 290 290 289 289 289 288 288 288 287 287 286 286 285 285 285 285 285
311 311 312 311 311 311 310 309 309 308 307 306 305 305 303 302 301 298 293 291 291 290 290 290 290 290 289 289 289 288 288 288 287 287 286 286 285 285 285 285 285 285 285
310 311 311 311 311 310 310 309 308 307 306 305 304 303 301 299 293 291 291 290 290 290 290 290 289 289 288 288 288 287 287 287 286 286 286 285 285 285 285 285 285 285 287
310 310 311 311 310 310 310 309 307 306 304 303 302 299 294 291 291 290 290 290 290 290 289 289 288 288 288 288 287 287 286 286 286 285 285 285 284 284 285 285 285 285 286
309 309 308 307 307 307 306 305 304 303 302 300 296 292 291 291 290 290 290 289 289 289 289 288 288 288 287 287 286 286 286 286 285 285 284 284 284 284 285 285 286 286 286
309 308 306 306 305 305 304 304 302 301 297 292 291 291 291 290 290 289 289 289 289 288 288 287 287 287 287 286 286 286 285 285 285 285 284 284 285 285 285 286 286 285 286
308 307 305 305 304 303 303 301 299 294 291 292 291 291 290 289 289 289 289 288 288 288 287 287 287 287 287 286 285 285 285 285 285 284 285 285 285 285 286 286 286 286 287
306 305 304 303 302 301 300 297 293 292 291 291 290 290 289 289 289 289 288 288 287 287 286 286 286 286 285 285 284 284 284 284 284 285 285 285 285 285 285 286 287 287 286
305 304 303 302 301 299 295 293 292 291 291 290 290 289 289 289 288 288 287 287 286 286 286 286 286 285 284 284 284 284 283 284 284 284 284 284 284 286 287 285 285 284 284
304 303 303 301 298 294 293 292 292 292 291 291 289 289 288 288 287 287 287 286 286 285 285 285 285 284 284 284 284 283 283 284 284 284 284 285 285 285 285 284 283 282 282
303 302 301 298 294 292 292 291 291 290 291 289 288 288 288 287 287 286 286 285 285 285 284 284 284 284 284 283 283 283 283 284 283 284 284 285 284 284 283 282 282 281 282
302 301 299 295 293 291 291 290 292 293 289 288 288 287 287 286 286 285 285 285 284 284 284 284 283 283 283 283 283 283 283 284 284 284 284 283 283 282 281 281 281 281 281
300 297 295 294 292 291 290 291 291 290 289 287 287 287 286 286 285 285 285 284 283 283 283 283 283 283 282 283 283 283 283 283 283 283 283 282 281 281 281 280 280 280 281
Wind_Speed
22 22 23 25 25 25 25 24 22 20 17 14 12 12 10 9 7 6 6 5 5 4 4 3 2 1 0 1 3 4 5 5 6 6 6 3 3 3 5 7 5 6 8
21 23 26 27 27 27 27 27 24 21 18 14 11 11 10 10 8 8 7 6 6 5 5 4 3 3 2 2 3 4 5 6 7 7 5 2 2 2 9 4 5 7 7
23 23 26 28 26 30 31 29 26 22 18 17 15 15 14 12 10 9 8 8 7 7 6 5 5 4 4 4 4 5 5 6 7 7 5 3 2 12 2 9 6 7 11
29 24 27 28 31 31 31 30 27 23 19 17 15 15 12 10 9 8 9 9 8 7 7 7 6 5 5 5 5 5 6 6 6 6 6 5 6 4 6 7 9 17 16
36 30 30 30 28 30 33 32 29 24 20 17 17 16 14 12 11 10 10 10 9 8 8 7 7 6 5 5 6 6 6 7 7 6 6 7 8 8 8 17 20 23 23
39 33 30 27 29 35 34 34 31 24 22 20 19 18 16 15 13 11 11 11 10 9 8 8 7 6 5 5 6 6 6 7 7 7 8 9 10 12 13 19 24 26 30
28 35 36 35 36 33 36 35 30 27 24 22 20 18 17 16 13 11 11 11 10 10 9 7 6 5 5 6 6 6 6 7 7 8 9 10 11 13 17 21 26 29 34
21 28 32 32 34 33 33 34 33 30 25 23 20 18 17 15 13 12 12 12 11 10 8 7 7 6 6 6 6 7 7 8 9 10 11 13 15 17 20 22 25 32 34
14 22 27 30 33 33 34 35 34 31 26 22 19 17 17 14 14 13 13 12 11 9 8 7 7 7 7 7 8 9 10 11 12 14 16 17 19 21 22 23 24 27 28
8 15 23 27 28 29 31 32 31 27 23 19 18 17 16 15 14 13 12 10 10 9 8 7 8 8 8 9 10 11 12 14 16 18 19 21 23 24 25 25 27 28 31
7 12 16 19 23 26 30 30 28 24 21 20 18 17 16 15 13 11 10 10 9 8 8 8 8 8 8 9 11 14 15 18 20 22 24 24 26 26 27 27 28 29 30
8 13 19 23 26 27 27 26 25 23 21 19 18 17 15 13 12 11 11 10 9 8 8 7 7 8 10 13 15 17 20 22 23 25 25 26 26 26 26 27 27 28 28
12 15 18 20 21 23 24 25 24 22 20 19 18 16 14 13 12 12 11 10 9 8 7 7 9 11 14 16 20 22 23 24 25 24 24 24 25 25 26 26 26 26 26
15 17 18 19 21 22 23 23 22 21 20 18 16 16 15 14 13 12 11 9 7 7 7 9 12 14 17 20 23 24 24 23 23 23 23 23 24 24 24 24 24 24 25
19 20 20 21 21 21 21 21 20 19 19 19 18 16 16 15 13 11 9 7 6 7 10 12 15 18 21 22 23 23 23 23 23 23 23 23 22 22 22 21 22 24 24
22 22 21 21 21 21 21 21 21 21 20 18 18 17 16 14 12 10 7 6 7 10 13 16 19 21 22 22 22 22 22 22 23 24 23 22 22 22 22 21 21 21 21
25 24 23 22 22 22 21 22 23 22 21 19 18 18 16 13 10 7 6 7 10 13 16 19 21 21 22 22 22 22 23 24 24 25 24 23 22 22 23 22 22 21 21
26 24 23 22 21 22 23 24 24 22 20 20 19 17 14 10 8 6 8 10 12 15 18 20 22 23 22 23 23 22 24 25 25 24 23 24 24 21 22 24 22 24 23
24 22 21 21 23 23 24 23 23 22 22 20 17 14 11 9 7 8 10 12 15 18 20 21 22 23 23 23 24 24 26 26 26 25 23 23 23 22 22 22 26 29 28
22 23 23 24 25 26 26 26 26 25 22 19 15 13 10 8 8 10 12 15 18 19 20 21 23 24 25 24 23 24 25 26 26 25 24 21 22 23 22 24 27 31 33
21 23 25 27 27 27 27 26 25 22 19 17 14 11 9 8 9 12 15 17 19 20 22 24 23 24 24 24 24 22 23 24 26 26 27 26 24 24 24 23 26 28 31
22 26 28 28 27 28 27 26 23 21 18 15 11 9 9 10 12 13 16 18 20 21 21 23 23 22 23 23 23 22 20 20 22 25 26 27 25 24 22 25 28 33 32
24 28 29 29 29 28 26 25 22 19 16 12 11 10 10 11 13 15 17 19 20 21 22 23 23 24 23 23 22 21 18 17 20 22 24 24 25 26 29 31 34 29 28
27 30 31 31 31 28 25 20 19 17 12 12 10 9 10 13 15 16 17 18 19 21 21 22 24 25 25 25 23 19 17 20 23 25 25 28 29 31 34 33 26 24 24
29 31 33 32 31 29 25 21 18 12 12 11 11 11 12 14 15 16 17 19 19 20 21 22 23 26 28 25 21 22 23 24 24 26 30 31 32 34 30 28 27 25 24
31 34 33 31 29 26 23 19 13 12 13 12 11 12 12 13 15 17 18 18 19 19 19 20 22 24 21 21 22 22 23 24 23 25 28 32 31 29 29 28 26 24 24
Wind_Direction
216 217 213 214 212 212 209 206 202 198 198 200 205 212 208 203 203 209 210 213 218 217 210 210 211 214 293 352 1 4 3 359 8 9 354 333 310 302 330 322 317 334 342
223 220 216 215 216 216 212 210 207 206 203 203 204 217 218 213 211 217 222 225 228 228 228 225 230 247 277 310 325 333 336 346 354 356 360 352 309 172 328 325 310 312 323
234 221 216 215 218 220 216 211 210 210 205 207 201 208 216 221 221 222 226 226 230 230 233 234 241 257 280 293 304 320 333 343 347 353 6 336 298 318 259 311 292 293 304
242 240 229 219 219 223 220 216 212 208 207 211 208 218 228 235 233 225 227 231 234 231 236 243 248 261 276 292 305 319 329 336 338 338 338 325 307 305 297 288 279 291 291
244 239 238 229 224 227 222 216 213 208 211 213 214 215 221 223 226 227 230 235 232 231 236 246 254 263 276 291 307 318 323 324 326 326 320 314 313 308 298 301 295 294 297
240 247 245 236 226 225 222 217 211 208 214 212 214 213 218 221 224 231 233 226 225 231 232 242 252 264 278 292 302 310 316 318 319 318 314 313 314 307 309 304 304 303 302
230 227 226 217 221 216 214 210 209 210 212 212 211 214 217 221 225 224 222 222 226 227 228 237 254 268 281 289 298 304 307 309 308 306 307 306 304 303 302 302 304 305 305
240 232 230 222 219 216 209 209 210 208 211 212 211 213 219 221 217 215 219 221 220 223 231 239 255 269 276 283 289 292 293 296 298 299 298 296 295 297 298 300 304 307 307
243 227 221 216 216 211 208 207 204 205 206 208 212 213 218 218 217 215 216 216 217 220 226 238 252 264 272 277 279 286 295 300 301 299 297 296 295 295 295 297 301 305 310
245 218 210 208 208 205 199 196 202 201 203 207 209 212 213 211 210 209 209 209 212 218 226 240 252 261 268 277 289 297 303 303 302 299 297 296 294 293 293 294 295 297 300
205 197 194 193 188 186 186 189 192 198 201 204 205 204 203 201 200 201 202 206 210 221 232 240 253 265 279 290 298 302 303 302 300 298 297 297 295 295 295 295 295 297 300
169 168 168 170 171 176 180 187 191 196 200 199 197 195 194 193 195 197 199 204 215 221 231 244 260 279 293 299 302 302 301 300 299 298 298 299 297 297 298 298 300 301 301
164 163 166 168 171 177 182 187 191 194 193 192 190 187 187 188 189 192 197 201 208 220 238 262 282 293 299 303 303 302 301 301 301 301 301 299 298 299 300 302 302 304 305
184 177 175 177 181 185 188 189 187 188 186 184 186 184 182 185 189 190 192 198 213 238 264 281 292 300 303 304 304 303 303 302 301 301 301 302 303 304 305 304 306 307 305
189 188 185 183 183 183 182 182 181 180 182 180 178 180 183 184 185 187 193 210 239 266 283 296 302 305 307 307 307 305 304 303 302 302 303 304 305 306 305 304 301 302 301
193 188 187 186 185 183 180 179 180 177 178 181 182 182 181 181 183 191 208 239 271 290 300 305 308 310 309 308 307 305 303 302 304 305 304 302 302 302 299 297 295 296 299
196 193 193 192 190 188 187 183 181 179 178 181 178 177 178 182 189 205 237 272 291 299 305 307 308 309 310 308 308 306 302 303 304 303 304 303 303 301 299 299 296 289 296
203 202 199 194 190 185 181 179 176 176 177 177 176 178 182 191 208 237 267 285 297 302 306 308 309 309 311 310 309 306 301 302 302 301 302 301 303 303 303 304 304 300 299
210 205 197 191 183 181 179 179 176 178 177 178 181 184 193 211 235 264 284 294 302 307 309 309 309 310 312 311 308 303 301 301 300 300 300 301 302 303 303 304 299 302 299
208 200 193 188 185 181 183 183 179 178 180 184 188 195 209 233 259 281 296 304 307 307 308 311 313 312 309 307 305 302 300 298 299 301 302 301 299 302 300 299 297 295 301
203 196 191 188 186 184 183 181 180 182 186 190 195 206 227 254 280 294 299 302 306 310 312 309 307 306 307 307 304 302 300 300 303 304 304 303 301 299 301 297 293 300 305
196 193 189 187 185 184 183 184 185 187 191 196 209 228 251 274 285 294 304 309 308 306 307 308 308 309 307 305 304 305 302 301 296 298 302 305 307 305 298 299 296 300 303
196 190 189 184 184 186 189 189 190 193 196 207 224 242 263 280 295 301 302 303 306 308 308 307 307 310 309 309 310 309 308 307 305 305 307 304 302 300 298 304 306 303 302
194 188 187 185 183 185 188 196 194 192 204 220 235 256 274 285 292 298 303 304 306 305 306 307 311 311 312 314 317 314 312 312 310 310 308 304 303 302 304 305 305 305 307
192 189 188 186 184 183 185 188 192 204 213 229 246 262 276 288 297 301 303 305 307 307 309 312 312 312 313 316 319 311 305 302 303 303 297 301 305 308 309 309 309 310 309
190 187 188 185 182 184 185 186 188 209 226 238 256 272 285 294 298 300 301 303 305 306 307 308 306 304 299 299 309 307 299 299 303 298 298 304 309 311 313 313 313 312 312